Location: Seven Kings
(51.5667°N, 0.1000°E)
Time: 05:34:02
(UTC+00:00)

Cosmos 292 Rocket - Pass Details

Date: 29 October 2020
Orbit: 672 x 695 km, 74.0° (Epoch: 25 November)

Event Time Altitude Azimuth Distance (km) Brightness Sun altitude
Rises 17:52:15 0° 209° (SSW) 3,032 7.6 -12.1°
Reaches altitude 10° 17:54:33 10° 211° (SSW) 2,125 6.8 -12.5°
Maximum altitude 17:59:20 73° 296° (WNW) 722 4.0 -13.2°
Drops below altitude 10° 18:04:11 10° 22° (NNE) 2,155 6.1 -14.0°
Sets 18:06:32 0° 24° (NNE) 3,079 6.9 -14.3°
